Simultaneous Nadir Overpasses (SNOs) Predictions

Prediction of SNOs over PacNW region [( 10.00, 139.50) to ( 22.70, 165.60)] between AQUA and NPP Satellites:

Table of predicted SNOs over PacNW region for the next 30.0 days since TLE Epoch: 3/13/2021
Index Date (AQUA) Time (AQUA) AQUA Lat,Lon Date (NPP) Time (NPP) NPP Lat,Lon Distance(km) Time Diff (sec)
1 03/16/2021 15:09:52 22.61, 159.86 03/16/2021 15:10:34 23.17, 157.26 273.51 42
2 03/24/2021 15:59:17 22.63, 147.50 03/24/2021 16:01:14 23.31, 144.61 305.07 117
3 04/01/2021 15:09:48 22.64, 159.87 04/01/2021 15:10:28 23.19, 157.28 271.98 40
